Location: Broekland
(52.3610°N, 6.2005°E)
Time: 16:48:45
(UTC+00:00)

ACS3 Solar Sail - Pass Details

Date: 19 January 2026
Orbit: 900 x 968 km, 97.2° (Epoch: 10 February)

Event Time Altitude Azimuth Distance (km) Brightness Sun altitude
Rises 03:47:00 0° 7° (N) 3,657 5.0 -34.0°
Reaches altitude 10° 03:49:52 10° 355° (N) 2,696 4.1 -33.6°
Enters shadow 03:49:59 10° 355° (N) 2,661 4.1 -33.5°
